Wind_Speed
70 67 66 64 63 62 62 62 60 54 51 50 51 55 59 56 54 57 55 55 53 51 52 49 51 56 58 61 65 68 70 75 77 79 81 82 87 88 90 95 103 100 95 88
66 63 67 68 66 64 62 61 59 56 54 52 53 56 60 61 60 58 57 57 58 57 55 55 57 60 63 66 69 72 75 79 83 84 86 88 92 94 97 100 107 92 85 86
63 62 63 65 67 67 63 63 60 56 55 53 55 56 65 63 64 61 60 61 61 60 61 62 63 65 68 71 74 77 81 84 87 89 90 95 96 99 106 110 99 90 84 84
61 62 61 59 63 66 66 66 64 59 57 57 61 53 69 67 67 66 66 67 67 67 67 69 69 70 73 77 80 81 85 89 93 95 97 100 99 108 109 107 99 90 88 79
66 65 65 63 61 64 66 67 65 65 64 63 66 61 62 70 73 72 72 72 72 73 73 75 74 76 79 81 85 87 90 94 97 99 104 106 109 108 107 102 94 91 82 75
67 68 69 68 67 66 66 68 70 70 69 67 68 65 63 70 72 77 78 78 75 76 76 77 79 79 82 86 88 89 94 98 101 106 109 111 113 110 106 97 91 87 80 81
68 66 67 68 70 71 72 73 73 71 71 70 67 64 67 71 75 78 78 78 76 77 80 82 80 82 85 88 91 94 99 102 107 110 113 113 113 113 97 91 92 84 83 84
77 75 73 72 73 73 72 73 75 72 71 70 70 67 69 73 79 81 81 79 75 75 78 80 82 87 89 91 95 99 102 105 109 111 111 115 119 103 97 95 92 88 88 84
81 80 79 79 79 77 78 79 80 78 76 74 70 69 72 75 79 82 83 81 78 79 83 85 86 88 91 94 97 102 106 109 110 111 112 115 116 101 96 94 91 91 89 85
85 82 81 81 81 82 83 82 82 82 79 73 69 68 69 73 78 84 86 82 80 81 86 88 90 93 97 99 102 105 108 108 110 110 114 115 103 98 96 93 91 89 86 86
88 84 80 81 79 81 83 82 82 82 81 77 70 64 67 72 81 90 92 86 83 83 87 89 93 95 95 98 100 106 107 109 108 112 110 111 100 99 97 95 90 83 82 80
93 90 85 84 83 82 82 80 83 83 80 78 80 65 76 80 88 96 95 90 87 88 89 91 96 96 98 102 104 105 110 111 110 111 111 105 102 98 97 95 86 82 77 70
95 95 95 93 92 91 89 90 90 90 92 90 88 75 85 90 96 102 99 95 88 88 91 94 98 100 102 104 107 109 109 106 109 111 104 97 100 98 97 92 88 81 67 60
103 100 100 98 102 99 98 99 99 100 99 100 96 90 85 94 101 104 103 96 94 97 99 100 98 98 99 105 105 104 104 104 104 100 91 93 97 96 96 86 83 71 57 51
110 107 108 107 108 107 104 104 104 102 101 104 96 102 93 100 101 105 105 104 101 102 101 100 101 105 97 95 100 102 100 97 96 93 86 90 94 94 94 86 79 59 50 43
116 114 116 114 119 118 114 108 109 112 113 113 110 99 111 103 108 107 108 108 108 108 104 102 98 94 90 92 90 94 93 93 90 80 82 86 89 88 90 85 70 54 42 37
117 120 120 117 122 125 119 118 121 121 120 118 113 111 112 110 112 110 112 110 102 102 104 98 93 86 83 84 88 86 82 80 75 70 75 77 84 84 84 73 57 48 40 31
115 118 119 117 117 118 111 113 114 114 117 114 112 112 109 108 109 109 103 101 98 94 93 83 81 81 82 82 79 78 70 66 63 63 66 72 78 77 74 65 56 46 38 30
109 109 112 111 110 104 96 105 106 104 104 108 106 100 97 98 100 97 94 92 88 86 83 81 82 81 82 79 75 70 62 55 54 58 58 65 69 70 66 63 57 43 35 27
107 109 112 109 110 106 94 102 104 106 98 106 107 104 100 98 95 94 91 88 86 84 82 81 81 79 80 78 67 60 51 56 49 50 51 56 60 63 61 61 54 40 32 23
101 102 102 100 105 96 85 90 88 94 95 98 100 100 100 95 93 91 88 86 85 83 80 77 75 74 72 67 61 49 41 47 42 43 44 47 51 55 59 60 52 38 28 18
101 102 97 101 103 88 89 85 82 83 91 93 90 89 86 83 84 80 78 79 78 76 73 69 67 65 61 52 49 36 38 43 35 37 37 39 41 46 51 55 52 42 30 22
100 97 102 101 97 91 87 84 85 83 90 92 86 84 80 76 75 70 64 65 65 64 62 61 59 52 48 42 42 35 36 35 29 29 31 32 32 37 44 47 48 43 35 26
82 86 92 90 76 75 80 79 82 84 90 88 79 76 76 73 69 67 60 59 58 56 55 54 49 44 41 38 33 29 31 32 25 23 23 25 24 30 36 41 46 46 40 29
72 76 74 74 62 70 72 73 74 77 75 75 77 77 74 71 67 65 60 56 56 51 49 47 44 39 37 35 28 26 31 27 22 20 17 20 18 22 29 31 37 43 40 36
69 76 77 63 67 65 64 66 70 73 71 72 73 73 71 67 64 61 58 54 53 49 46 44 42 36 33 28 26 24 29 28 23 18 13 15 15 15 21 24 23 29 37 35
Wind_Direction
262 263 266 267 267 266 268 270 272 272 270 274 276 280 283 286 285 285 287 290 290 291 296 296 290 287 287 289 292 294 299 302 305 308 310 311 313 314 312 311 312 307 300 300
263 263 262 263 265 267 267 267 270 270 272 273 275 279 282 284 285 285 284 288 290 293 294 294 289 289 288 291 293 296 299 302 303 306 309 310 312 313 311 307 309 304 303 300
263 263 263 265 263 264 265 266 267 268 271 272 274 278 280 282 284 282 281 283 285 288 290 288 289 291 292 292 292 297 300 301 302 302 304 307 308 310 308 311 311 307 302 293
263 263 263 265 263 262 264 265 267 267 269 272 276 275 276 278 279 280 280 281 284 287 288 288 289 291 294 293 295 297 299 300 301 303 304 306 307 310 312 315 311 304 298 297
264 265 264 263 263 264 266 266 266 268 270 274 277 277 271 273 276 279 279 281 283 285 287 288 290 291 293 294 295 298 300 300 300 302 303 306 309 311 316 313 309 304 301 301
263 263 264 264 265 265 265 266 268 269 271 275 277 278 275 272 272 274 276 278 281 283 284 287 290 291 293 295 296 297 297 298 299 301 304 308 312 315 316 310 305 305 305 305
260 261 263 264 264 265 266 267 269 272 274 274 275 278 275 276 276 277 278 279 281 282 284 287 289 291 293 293 295 296 297 300 301 303 308 312 315 317 316 311 311 309 308 305
261 261 261 262 264 266 267 268 270 271 273 275 277 278 275 276 277 278 278 279 282 284 286 288 289 290 292 293 295 297 300 301 304 306 309 313 315 317 314 312 311 312 309 305
261 262 263 265 265 267 268 269 270 271 271 272 274 276 277 276 278 278 279 281 285 287 287 289 290 292 294 295 297 299 302 304 305 308 312 315 318 316 313 313 313 312 309 305
260 261 263 264 266 268 268 270 271 271 270 271 272 274 276 276 277 279 280 282 286 288 288 290 292 293 295 296 298 300 302 303 307 310 313 316 318 315 315 315 314 313 309 303
259 260 260 263 263 264 266 267 269 270 271 271 268 271 273 273 275 275 278 282 286 287 288 290 292 294 296 298 299 300 304 306 309 312 316 318 317 317 317 316 317 314 310 301
256 255 257 258 261 262 263 266 268 270 270 272 272 267 272 272 274 275 278 282 284 285 288 290 292 295 297 299 301 304 305 308 310 312 317 318 317 319 318 318 320 318 307 298
255 256 256 258 259 260 263 266 267 267 272 272 273 273 273 273 274 277 279 281 284 288 290 291 293 295 297 299 303 305 306 308 312 314 318 317 319 319 318 321 323 315 304 300
255 257 259 260 261 261 260 263 266 268 270 268 272 270 274 272 272 276 277 278 282 286 287 290 293 295 299 299 301 304 306 309 312 316 318 317 317 318 319 325 319 314 309 302
255 256 258 259 259 261 260 262 264 265 265 268 267 269 268 270 273 279 280 282 282 285 288 289 291 294 298 300 301 304 306 311 312 317 317 316 317 319 322 328 321 316 312 306
257 258 259 260 261 262 263 261 265 267 268 269 268 270 268 269 273 276 278 281 284 283 286 288 291 294 296 298 300 302 306 310 312 317 315 315 317 321 324 328 320 321 317 308
256 256 256 258 258 260 263 263 262 263 266 267 268 268 267 269 270 271 275 280 280 280 283 286 289 292 294 296 298 303 308 309 315 314 313 315 318 324 325 329 329 329 326 312
259 259 259 261 261 262 264 266 267 267 267 269 268 268 268 268 268 273 274 276 278 279 280 283 285 288 291 294 297 303 307 308 314 309 315 317 320 326 328 338 343 336 330 320
262 262 262 261 262 262 263 265 266 266 268 269 270 269 267 267 268 271 273 272 273 275 275 278 280 283 286 291 296 301 307 302 307 311 317 320 326 329 333 345 348 344 337 328
264 264 264 264 264 263 265 265 265 266 267 268 268 269 268 267 266 268 269 270 270 271 273 275 278 282 284 289 294 298 301 304 301 310 319 326 332 335 339 349 352 350 348 342
263 264 266 266 266 265 265 263 265 268 266 267 267 267 267 268 268 267 267 267 268 269 270 272 274 277 281 286 290 298 291 295 300 310 321 333 338 343 346 351 358 357 358 1
264 264 266 267 267 268 267 265 264 264 264 263 264 266 267 268 267 266 264 264 263 263 266 267 270 274 278 281 284 287 289 284 298 306 320 334 342 351 355 358 2 7 6 3
263 265 263 264 267 268 268 266 264 262 261 261 260 263 265 265 266 266 265 263 262 262 261 261 262 265 270 274 279 275 270 277 289 304 316 333 349 359 2 7 7 13 13 20
263 264 264 265 269 269 267 264 262 259 260 264 266 263 262 261 263 264 263 262 259 257 255 255 254 257 259 262 273 269 261 263 279 298 315 331 356 6 11 14 13 17 28 32
263 264 267 266 269 264 265 265 265 264 262 261 259 259 259 260 257 258 258 256 256 254 251 247 243 242 250 259 259 264 252 254 265 285 306 323 348 7 21 20 24 27 38 46
264 263 265 265 264 264 262 261 259 259 258 257 255 255 253 254 253 254 253 252 251 250 245 236 232 235 245 245 248 256 258 247 251 265 285 310 327 4 22 26 26 36 50 51
Height
10685 10687 10686 10687 10689 10690 10691 10692 10691 10692 10690 10689 10687 10680 10672 10678 10677 10672 10669 10666 10664 10662 10659 10655 10651 10646 10644 10642 10637 10632 10626 10620 10614 10608 10601 10595 10588 10581 10573 10561 10551 10542 10533 10524
10670 10672 10671 10674 10675 10677 10677 10678 10678 10678 10678 10679 10676 10670 10664 10660 10662 10659 10656 10653 10650 10649 10645 10640 10636 10633 10630 10626 10620 10614 10610 10603 10595 10588 10581 10574 10566 10559 10551 10540 10530 10515 10503 10495
10656 10658 10659 10660 10661 10663 10664 10663 10664 10666 10665 10667 10665 10664 10648 10649 10646 10644 10642 10639 10638 10635 10631 10626 10621 10618 10614 10608 10603 10597 10591 10584 10575 10568 10564 10555 10548 10539 10526 10513 10498 10482 10477 10475
10642 10643 10644 10646 10646 10648 10649 10648 10650 10652 10653 10654 10647 10660 10634 10635 10631 10630 10628 10625 10624 10622 10617 10610 10607 10603 10598 10591 10585 10581 10574 10565 10555 10548 10541 10534 10526 10515 10500 10483 10466 10457 10451 10442
10628 10629 10631 10631 10632 10633 10635 10634 10635 10637 10639 10642 10635 10639 10634 10622 10615 10613 10611 10610 10610 10607 10602 10594 10592 10588 10582 10575 10566 10561 10555 10545 10536 10528 10518 10512 10502 10487 10473 10454 10442 10434 10421 10410
10610 10614 10615 10616 10617 10618 10619 10619 10620 10622 10625 10628 10623 10623 10621 10607 10605 10599 10595 10595 10597 10593 10587 10581 10577 10573 10565 10559 10552 10546 10538 10528 10519 10508 10496 10485 10472 10459 10446 10431 10420 10405 10392 10381
10595 10598 10599 10601 10602 10602 10603 10602 10603 10608 10610 10611 10611 10613 10603 10593 10586 10579 10577 10577 10582 10579 10572 10567 10562 10556 10550 10543 10536 10530 10519 10511 10498 10486 10473 10457 10441 10428 10416 10401 10386 10372 10362 10355
10578 10581 10582 10583 10585 10585 10584 10583 10583 10591 10593 10595 10596 10601 10591 10580 10567 10560 10557 10560 10566 10563 10555 10551 10546 10539 10533 10526 10518 10509 10499 10489 10477 10464 10450 10434 10421 10403 10388 10372 10357 10344 10333 10324
10558 10564 10563 10565 10567 10567 10567 10566 10565 10568 10574 10580 10584 10583 10576 10565 10552 10538 10536 10543 10550 10549 10538 10534 10528 10522 10515 10507 10498 10488 10478 10468 10455 10442 10427 10413 10397 10380 10364 10349 10333 10319 10306 10293
10538 10544 10547 10546 10547 10547 10546 10548 10547 10547 10553 10560 10568 10569 10564 10549 10532 10518 10513 10524 10532 10531 10519 10516 10509 10502 10495 10486 10478 10467 10457 10447 10436 10422 10406 10392 10374 10359 10342 10324 10308 10296 10281 10269
10517 10523 10533 10529 10530 10528 10527 10528 10527 10527 10531 10537 10549 10556 10547 10534 10517 10497 10494 10510 10516 10512 10504 10499 10490 10483 10475 10466 10459 10448 10439 10426 10414 10401 10385 10371 10354 10337 10317 10298 10285 10271 10255 10240
10496 10504 10508 10508 10509 10508 10508 10509 10505 10504 10514 10517 10519 10547 10524 10515 10496 10478 10479 10494 10499 10494 10489 10482 10474 10467 10457 10448 10439 10430 10418 10408 10395 10380 10367 10349 10331 10312 10293 10276 10263 10245 10231 10218
10472 10479 10485 10488 10486 10487 10489 10488 10486 10485 10489 10500 10494 10524 10503 10494 10476 10455 10467 10473 10480 10477 10471 10463 10454 10448 10439 10429 10420 10413 10401 10391 10379 10363 10348 10331 10312 10294 10276 10258 10240 10225 10210 10197
10448 10455 10457 10465 10458 10466 10469 10467 10465 10465 10470 10467 10480 10483 10491 10464 10453 10448 10450 10461 10465 10459 10451 10444 10435 10429 10421 10412 10406 10398 10387 10376 10363 10350 10335 10316 10298 10278 10258 10242 10226 10208 10192 10179
10421 10431 10432 10436 10433 10435 10443 10444 10441 10445 10442 10436 10464 10448 10464 10443 10439 10429 10431 10435 10438 10436 10431 10426 10422 10414 10405 10396 10389 10381 10372 10363 10349 10338 10322 10303 10283 10262 10243 10227 10208 10193 10177 10167
10393 10404 10405 10414 10402 10403 10415 10424 10421 10414 10414 10412 10423 10438 10410 10428 10420 10419 10414 10417 10420 10416 10413 10407 10401 10395 10389 10384 10377 10368 10360 10351 10339 10328 10310 10293 10271 10254 10233 10216 10195 10177 10165 10156
10365 10368 10373 10381 10376 10373 10388 10401 10391 10390 10386 10384 10395 10403 10399 10406 10396 10401 10401 10398 10400 10398 10394 10391 10384 10380 10373 10368 10364 10357 10350 10339 10330 10317 10304 10284 10264 10248 10228 10209 10185 10167 10155 10148
10337 10335 10338 10348 10346 10352 10373 10364 10360 10357 10360 10358 10365 10372 10374 10378 10374 10375 10382 10380 10378 10378 10374 10372 10365 10363 10359 10355 10349 10347 10340 10328 10322 10310 10297 10278 10258 10243 10223 10202 10179 10163 10151 10143
10305 10304 10302 10308 10314 10332 10352 10332 10331 10336 10340 10330 10333 10342 10347 10350 10350 10353 10356 10358 10358 10357 10354 10353 10349 10348 10344 10340 10337 10335 10329 10319 10314 10304 10292 10275 10257 10237 10219 10199 10177 10162 10151 10142
10273 10270 10269 10282 10282 10295 10328 10309 10307 10305 10325 10302 10304 10308 10315 10321 10327 10327 10330 10334 10335 10336 10337 10336 10333 10334 10331 10329 10325 10323 10319 10312 10307 10299 10287 10273 10255 10234 10217 10200 10181 10165 10153 10144
10244 10242 10241 10252 10246 10273 10286 10273 10289 10288 10284 10279 10276 10277 10282 10290 10297 10304 10308 10311 10313 10314 10315 10316 10316 10317 10317 10316 10315 10314 10309 10304 10300 10293 10283 10271 10257 10237 10217 10201 10187 10170 10157 10149
10216 10213 10225 10218 10214 10248 10242 10253 10259 10261 10248 10244 10250 10253 10260 10268 10269 10278 10282 10283 10289 10290 10294 10298 10300 10303 10303 10302 10302 10303 10300 10296 10294 10288 10280 10272 10259 10243 10225 10208 10192 10176 10165 10155
10187 10195 10186 10194 10204 10215 10218 10226 10225 10230 10217 10216 10228 10233 10240 10248 10247 10255 10263 10263 10267 10272 10274 10280 10283 10288 10290 10290 10290 10291 10290 10289 10286 10282 10278 10270 10261 10248 10232 10218 10202 10187 10173 10164
10172 10168 10164 10168 10198 10191 10183 10192 10191 10194 10193 10198 10212 10217 10218 10224 10231 10234 10243 10246 10249 10252 10257 10264 10267 10273 10277 10278 10279 10279 10280 10281 10280 10277 10275 10269 10262 10251 10240 10227 10213 10199 10185 10175
10157 10149 10151 10157 10169 10155 10162 10165 10168 10170 10176 10181 10183 10189 10196 10203 10209 10215 10223 10229 10232 10236 10241 10247 10253 10260 10264 10266 10268 10268 10271 10273 10272 10272 10270 10266 10262 10254 10246 10238 10226 10214 10203 10192
10138 10126 10124 10145 10135 10141 10145 10140 10138 10141 10147 10152 10157 10162 10171 10183 10190 10198 10205 10212 10216 10220 10225 10232 10239 10247 10252 10255 10257 10258 10262 10264 10265 10265 10264 10263 10260 10256 10250 10245 10238 10229 10219 10210